DW6722 Weather Reports


time (UTC)temp
C
wind
direction
speed
KPH
gust
KPH
rain 1hr
cm
rain 24hr
cm
rain mn
cm
humidity
%
barometer
mb
20260507070058 9 3 8.0 16.1 0.00 0.00 0.00 76 1015.7
20260507065545 9 19 11.3 16.1 0.00 0.00 0.00 76 1015.7
20260507065044 9 352 11.3 16.1 0.00 0.00 0.00 76 1015.7
20260507064544 9 337 6.4 17.7 0.00 0.00 0.00 78 1015.7
20260507064044 9 349 9.7 16.1 0.00 0.00 0.00 78 1015.7
20260507063543 9 2 9.7 14.5 0.00 0.00 0.00 79 1015.6
20260507063041 9 1 9.7 14.5 0.00 0.00 0.00 79 1015.5
20260507062541 8 3 8.0 12.9 0.00 0.00 0.00 80 1015.5
20260507062040 8 352 11.3 12.9 0.00 0.00 0.00 80 1015.5
20260507061540 8 326 8.0 12.9 0.00 0.00 0.00 81 1015.5
20260507061038 8 342 8.0 12.9 0.00 0.00 0.00 81 1015.5
20260507060542 8 354 8.0 11.3 0.00 0.00 0.00 81 1015.5
20260507060048 8 356 4.8 9.7 0.00 0.00 0.00 82 1015.4
20260507055539 8 34 4.8 9.7 0.00 0.00 0.00 83 1015.4
20260507055038 8 13 6.4 9.7 0.00 0.00 0.00 83 1015.3
20260507054537 8 328 6.4 9.7 0.00 0.00 0.00 84 1015.3
20260507054037 8 349 8.0 9.7 0.00 0.00 0.00 84 1015.3
20260507053537 7 321 4.8 9.7 0.00 0.00 0.00 84 1015.3
20260507053040 7 330 3.2 6.4 0.00 0.00 0.00 84 1015.2
20260507052535 7 316 3.2 8.0 0.00 0.00 0.00 84 1015.2
20260507052036 7 319 4.8 8.0 0.00 0.00 0.00 84 1015.1
20260507051540 7 325 4.8 6.4 0.00 0.00 0.00 84 1015.1
20260507051034 7 347 4.8 6.4 0.00 0.00 0.00 84 1015.1
20260507050534 7 338 3.2 6.4 0.00 0.00 0.00 84 1015.0
20260507050041 7 325 3.2 8.0 0.00 0.00 0.00 84 1014.9
20260507045534 7 327 4.8 8.0 0.00 0.00 0.00 84 1014.9
20260507045033 7 328 3.2 8.0 0.00 0.00 0.00 84 1014.9
20260507044532 7 347 4.8 11.3 0.00 0.00 0.00 84 1014.9
20260507044032 7 348 6.4 11.3 0.00 0.00 0.00 83 1014.8
20260507043530 7 342 4.8 9.7 0.00 0.00 0.00 83 1014.7
20260507043030 7 339 4.8 9.7 0.00 0.00 0.00 82 1014.7
20260507042530 7 342 6.4 9.7 0.00 0.00 0.00 83 1014.6
20260507042029 7 328 6.4 11.3 0.00 0.00 0.00 82 1014.6
20260507041531 7 315 6.4 11.3 0.00 0.00 0.00 81 1014.6
20260507041028 7 316 6.4 11.3 0.00 0.00 0.00 81 1014.6
20260507040528 7 327 8.0 11.3 0.00 0.00 0.00 81 1014.5
20260507040026 7 349 8.0 11.3 0.00 0.00 0.00 81 1014.5
20260507035526 8 333 8.0 11.3 0.00 0.00 0.00 80 1014.5
20260507035025 8 331 8.0 11.3 0.00 0.00 0.00 79 1014.4
20260507034537 8 333 8.0 11.3 0.00 0.00 0.00 80 1014.4
20260507034023 8 353 8.0 11.3 0.00 0.00 0.00 79 1014.3
20260507033523 8 12 8.0 11.3 0.00 0.00 0.00 78 1014.3
20260507033022 8 359 8.0 12.9 0.00 0.00 0.00 78 1014.3
20260507032521 8 15 6.4 12.9 0.00 0.00 0.00 78 1014.3
20260507032021 8 23 8.0 12.9 0.00 0.00 0.00 77 1014.3
20260507031520 8 27 8.0 12.9 0.00 0.00 0.00 79 1014.3
20260507031020 8 16 6.4 12.9 0.00 0.00 0.00 79 1014.2
20260507030520 8 11 6.4 14.5 0.00 0.00 0.00 79 1014.2
20260507030020 8 11 9.7 14.5 0.00 0.00 0.00 79 1014.1
20260507025518 8 5 8.0 12.9 0.00 0.00 0.00 80 1014.2
20260507025019 8 339 9.7 12.9 0.00 0.00 0.00 80 1014.1
20260507024530 8 1 9.7 14.5 0.00 0.00 0.00 80 1014.1
20260507024017 8 344 9.7 14.5 0.00 0.00 0.00 80 1014.1
20260507023521 8 338 9.7 12.9 0.00 0.00 0.00 79 1014.1
20260507023014 8 328 8.0 11.3 0.00 0.00 0.00 79 1014.1
20260507022513 8 321 8.0 11.3 0.00 0.00 0.00 79 1014.0
20260507022015 8 354 8.0 12.9 0.00 0.00 0.00 78 1014.0
20260507021511 8 11 8.0 12.9 0.00 0.00 0.00 78 1013.9
20260507021011 8 356 8.0 12.9 0.00 0.00 0.00 78 1013.8
20260507020510 8 4 8.0 12.9 0.00 0.00 0.00 77 1013.8
20260507020009 9 4 8.0 14.5 0.00 0.00 0.00 77 1013.7
20260507015513 9 15 9.7 14.5 0.00 0.00 0.00 77 1013.7
20260507015007 9 15 9.7 17.7 0.00 0.00 0.00 77 1013.7
20260507014509 9 357 11.3 16.1 0.00 0.00 0.00 77 1013.6
20260507014006 9 13 11.3 16.1 0.00 0.00 0.00 78 1013.7
20260507013504 9 333 11.3 16.1 0.00 0.00 0.00 78 1013.6
20260507013004 9 6 11.3 16.1 0.00 0.00 0.00 77 1013.6
20260507012502 9 347 11.3 16.1 0.00 0.00 0.00 77 1013.6
20260507012002 10 339 11.3 16.1 0.00 0.00 0.00 76 1013.6
20260507011502 10 354 11.3 16.1 0.00 0.00 0.00 76 1013.6
20260507011001 10 325 8.0 12.9 0.00 0.00 0.00 76 1013.6
20260507010559 10 350 9.7 12.9 0.00 0.00 0.00 76 1013.5
20260507010114 10 4 8.0 12.9 0.00 0.00 0.00 76 1013.5
20260507005559 10 357 9.7 14.5 0.00 0.00 0.00 75 1013.5
20260507005056 10 2 9.7 14.5 0.00 0.00 0.00 76 1013.4
20260507004556 10 360 9.7 14.5 0.00 0.00 0.00 76 1013.4
20260507004055 10 354 11.3 16.1 0.00 0.00 0.00 76 1013.3
20260507003553 10 342 9.7 16.1 0.00 0.00 0.00 76 1013.3
20260507003054 10 349 9.7 14.5 0.00 0.00 0.00 76 1013.3
20260507002552 10 337 9.7 14.5 0.00 0.00 0.00 76 1013.2
20260507002054 10 349 9.7 16.1 0.00 0.00 0.00 76 1013.2
20260507001558 10 342 11.3 17.7 0.00 0.00 0.00 75 1013.3
20260507001052 10 1 11.3 17.7 0.00 0.00 0.00 73 1013.2
20260507000552 10 348 9.7 14.5 0.00 0.00 0.00 73 1013.3
20260507000053 10 7 11.3 14.5 0.00 0.00 0.00 73 1013.3
20260506235548 10 347 11.3 14.5 0.00 0.00 0.00 72 1013.3
20260506235047 10 3 11.3 17.7 0.00 0.00 0.00 72 1013.2
20260506234548 10 352 12.9 17.7 0.00 0.00 0.00 72 1013.2
20260506234046 10 333 12.9 16.1 0.00 0.00 0.00 71 1013.1
20260506233546 10 334 12.9 17.7 0.00 0.00 0.00 71 1013.0
20260506233057 10 5 11.3 17.7 0.00 0.00 0.00 71 1013.0
20260506232544 10 348 14.5 17.7 0.00 0.00 0.00 70 1012.9
20260506232044 10 330 14.5 19.3 0.00 0.00 0.00 71 1012.9
20260506231543 10 355 14.5 19.3 0.00 0.00 0.00 71 1012.8
20260506231041 11 359 11.3 17.7 0.00 0.00 0.00 71 1012.8
20260506230541 11 350 14.5 19.3 0.00 0.00 0.00 71 1012.8
20260506230044 11 342 11.3 17.7 0.00 0.00 0.00 71 1012.8
20260506225540 11 354 12.9 17.7 0.00 0.00 0.00 72 1012.8
20260506225042 11 347 12.9 19.3 0.00 0.00 0.00 72 1012.8
20260506224538 11 344 12.9 19.3 0.00 0.00 0.00 72 1012.8
20260506224037 11 352 11.3 16.1 0.00 0.00 0.00 73 1012.8
20260506223537 11 326 12.9 17.7 0.00 0.00 0.00 72 1012.7
20260506223042 11 333 12.9 17.7 0.00 0.00 0.00 72 1012.7
20260506222536 11 342 11.3 14.5 0.00 0.00 0.00 74 1012.8
20260506222037 11 349 9.7 14.5 0.00 0.00 0.00 74 1012.8
20260506221542 11 323 8.0 11.3 0.00 0.00 0.00 75 1012.8
20260506221032 11 328 8.0 11.3 0.00 0.00 0.00 74 1012.7
20260506220532 11 1 8.0 11.3 0.00 0.00 0.00 73 1012.7
20260506220036 11 337 4.8 9.7 0.00 0.00 0.00 73 1012.7
20260506215530 11 354 4.8 9.7 0.00 0.00 0.00 73 1012.6
20260506215030 11 344 6.4 9.7 0.00 0.00 0.00 72 1012.6
20260506214530 11 345 8.0 11.3 0.00 0.00 0.00 71 1012.6
20260506214031 11 328 6.4 9.7 0.00 0.00 0.00 70 1012.5
20260506213529 11 319 6.4 11.3 0.00 0.00 0.00 70 1012.6
20260506213029 11 304 6.4 11.3 0.00 0.00 0.00 69 1012.6
20260506212530 11 302 4.8 9.7 0.00 0.00 0.00 70 1012.6
20260506212028 11 322 6.4 14.5 0.00 0.00 0.00 69 1012.5
20260506211530 11 323 8.0 14.5 0.00 0.00 0.00 68 1012.4
20260506211027 11 337 9.7 17.7 0.00 0.00 0.00 68 1012.4
20260506210526 11 323 11.3 17.7 0.00 0.00 0.00 69 1012.3
20260506210026 11 316 6.4 12.9 0.00 0.00 0.00 68 1012.3
20260506205525 11 337 8.0 11.3 0.00 0.00 0.00 67 1012.3
20260506205025 11 318 6.4 9.7 0.00 0.00 0.00 68 1012.2
20260506204526 11 331 6.4 9.7 0.00 0.00 0.00 68 1012.2
20260506204025 11 307 6.4 12.9 0.00 0.00 0.00 68 1012.2
20260506203523 11 314 8.0 12.9 0.00 0.00 0.00 68 1012.2
20260506203027 11 313 6.4 9.7 0.00 0.00 0.00 70 1012.2
20260506202523 11 298 4.8 8.0 0.00 0.00 0.00 69 1012.1
20260506202022 11 302 4.8 6.4 0.00 0.00 0.00 69 1012.0
20260506201526 11 297 4.8 6.4 0.00 0.00 0.00 69 1012.0
20260506201020 11 303 4.8 6.4 0.00 0.00 0.00 68 1012.0
20260506200520 11 288 1.6 3.2 0.00 0.00 0.00 67 1011.9
20260506200020 11 329 0.0 3.2 0.00 0.00 0.00 66 1011.9
20260506195520 11 335 1.6 3.2 0.00 0.00 0.00 66 1012.0
20260506195020 11 307 0.0 3.2 0.00 0.00 0.00 65 1011.9
20260506194519 11 340 0.0 3.2 0.00 0.00 0.00 67 1011.9
20260506194018 11 9 0.0 6.4 0.00 0.00 0.00 67 1011.9
20260506193518 11 13 3.2 6.4 0.00 0.00 0.00 68 1011.9
20260506193018 11 30 3.2 6.4 0.00 0.00 0.00 68 1011.9
20260506192518 11 20 3.2 8.0 0.00 0.00 0.00 67 1011.9
20260506192017 11 18 4.8 8.0 0.00 0.00 0.00 68 1011.8
20260506191516 11 25 4.8 8.0 0.00 0.00 0.00 67 1011.6
20260506191017 11 53 4.8 8.0 0.00 0.00 0.00 68 1011.5
20260506190516 11 41 1.6 4.8 0.00 0.00 0.00 66 1011.5
20260506190014 11 80 1.6 6.4 0.00 0.00 0.00 66 1011.4
20260506185515 11 53 3.2 8.0 0.00 0.00 0.00 67 1011.4
20260506185016 11 9 4.8 8.0 0.00 0.00 0.00 67 1011.3
20260506184521 11 9 3.2 9.7 0.00 0.00 0.00 66 1011.3
20260506184013 11 9 6.4 12.9 0.00 0.00 0.00 66 1011.2
20260506183513 11 25 8.0 14.5 0.00 0.00 0.00 65 1011.2
20260506183013 11 30 8.0 14.5 0.00 0.00 0.00 64 1011.0
20260506182511 11 70 8.0 11.3 0.00 0.00 0.00 64 1011.0
20260506182011 11 51 8.0 11.3 0.00 0.00 0.00 64 1011.0
20260506181511 11 45 6.4 9.7 0.00 0.00 0.00 65 1011.0
20260506181011 11 27 6.4 9.7 0.00 0.00 0.00 65 1010.9
20260506180509 11 28 6.4 12.9 0.00 0.00 0.00 65 1010.8
20260506180009 11 36 9.7 12.9 0.00 0.00 0.00 65 1010.8
20260506175508 11 34 8.0 12.9 0.00 0.00 0.00 64 1010.7
20260506175007 11 32 9.7 14.5 0.00 0.00 0.00 64 1010.6
20260506174506 11 44 4.8 14.5 0.00 0.00 0.00 66 1010.6
20260506174009 11 44 8.0 12.9 0.00 0.00 0.00 65 1010.5
20260506173505 11 25 8.0 12.9 0.00 0.00 0.00 64 1010.5
20260506173005 11 39 9.7 12.9 0.00 0.00 0.00 65 1010.4
20260506172505 11 46 6.4 12.9 0.00 0.00 0.00 64 1010.4
20260506172004 11 37 6.4 12.9 0.00 0.00 0.00 64 1010.4
20260506171504 11 28 6.4 17.7 0.00 0.00 0.00 65 1010.4
20260506171003 11 39 11.3 17.7 0.00 0.00 0.00 64 1010.3
20260506170505 11 47 11.3 14.5 0.00 0.00 0.00 63 1010.2
20260506170008 11 34 9.7 14.5 0.00 0.00 0.00 64 1010.2
20260506165503 11 17 9.7 17.7 0.00 0.00 0.00 64 1010.2
20260506165005 11 39 12.9 17.7 0.00 0.00 0.00 63 1010.2
20260506164502 11 22 11.3 22.5 0.00 0.00 0.00 64 1010.3
20260506164002 11 37 16.1 24.1 0.00 0.00 0.00 63 1010.2
20260506163502 11 37 14.5 24.1 0.00 0.00 0.00 64 1010.3
20260506163005 11 22 19.3 24.1 0.00 0.00 0.00 63 1010.3
20260506162502 11 19 14.5 24.1 0.00 0.00 0.00 63 1010.3
20260506162001 11 32 16.1 19.3 0.00 0.00 0.00 64 1010.2
20260506161612 11 41 11.3 20.9 0.00 0.00 0.00 63 1010.2
20260506161100 11 30 11.3 20.9 0.00 0.00 0.00 63 1010.2
20260506160600 11 44 12.9 19.3 0.00 0.00 0.00 63 1010.2
20260506160110 11 30 12.9 19.3 0.00 0.00 0.00 63 1010.2
20260506155600 11 32 11.3 14.5 0.00 0.00 0.00 64 1010.2
20260506155059 11 34 11.3 17.7 0.00 0.00 0.00 63 1010.2
20260506154602 11 33 11.3 17.7 0.00 0.00 0.00 64 1010.2
20260506154059 11 13 12.9 17.7 0.00 0.00 0.00 64 1010.2
20260506153559 11 30 11.3 17.7 0.00 0.00 0.00 64 1010.2
20260506153058 11 32 9.7 17.7 0.00 0.00 0.00 65 1010.2
20260506152558 11 30 11.3 17.7 0.00 0.00 0.00 64 1010.2
20260506152058 11 14 11.3 25.7 0.00 0.00 0.00 65 1010.2
20260506151558 11 22 16.1 25.7 0.00 0.00 0.00 65 1010.1
20260506151057 11 20 14.5 22.5 0.00 0.00 0.00 63 1010.1
20260506150559 11 4 16.1 24.1 0.00 0.00 0.00 63 1010.1
20260506145556 11 24 14.5 22.5 0.00 0.00 0.00 62 1010.1
20260506145058 11 7 16.1 25.7 0.00 0.00 0.00 62 1010.1
20260506144609 11 23 16.1 25.7 0.00 0.00 0.00 62 1010.0
20260506144054 11 22 17.7 25.7 0.00 0.00 0.00 62 1010.0
20260506143554 11 23 16.1 22.5 0.00 0.00 0.00 63 1010.0
20260506143056 12 7 12.9 29.0 0.00 0.00 0.00 60 1010.0
20260506142557 11 354 17.7 29.0 0.00 0.00 0.00 61 1010.0
20260506142053 11 18 14.5 22.5 0.00 0.00 0.00 61 1010.0
20260506141554 12 13 14.5 22.5 0.00 0.00 0.00 61 1010.0
20260506141056 12 357 12.9 29.0 0.00 0.00 0.00 61 1009.9
20260506140556 12 30 17.7 30.6 0.00 0.00 0.00 61 1009.9
20260506140106 12 17 24.1 33.8 0.00 0.00 0.00 59 1010.0
20260506135551 12 19 24.1 35.4 0.00 0.00 0.00 58 1010.0
20260506135051 12 27 20.9 37.0 0.00 0.00 0.00 61 1009.9
20260506134552 12 31 24.1 32.2 0.00 0.00 0.00 58 1009.7
20260506134051 12 349 24.1 32.2 0.00 0.00 0.00 58 1009.6
20260506133551 12 29 14.5 25.7 0.00 0.00 0.00 60 1009.6
20260506133111 12 27 19.3 29.0 0.00 0.00 0.00 58 1009.6
20260506132554 12 21 17.7 29.0 0.00 0.00 0.00 58 1009.6
20260506132050 12 18 17.7 27.4 0.00 0.00 0.00 61 1009.6
20260506131549 12 360 17.7 25.7 0.00 0.00 0.00 60 1009.6
20260506131053 12 27 20.9 25.7 0.00 0.00 0.00 62 1009.6
20260506130550 12 352 14.5 22.5 0.00 0.00 0.00 63 1009.4
20260506130131 12 355 17.7 22.5 0.00 0.00 0.00 65 1009.4
20260506125548 12 352 12.9 20.9 0.00 0.00 0.00 66 1009.4
20260506125048 12 347 16.1 24.1 0.00 0.00 0.00 67 1009.4
20260506124551 12 337 19.3 24.1 0.00 0.00 0.00 65 1009.4
20260506124048 12 346 17.7 24.1 0.00 0.00 0.00 67 1009.4
20260506123548 12 351 16.1 24.1 0.00 0.00 0.00 68 1009.3
20260506123048 12 338 17.7 24.1 0.00 0.00 0.00 69 1009.3
20260506122548 12 337 17.7 24.1 0.00 0.00 0.00 69 1009.3
20260506122046 12 343 17.7 24.1 0.00 0.00 0.00 69 1009.2
20260506121552 12 351 19.3 29.0 0.00 0.00 0.00 69 1009.3
20260506121048 12 328 19.3 29.0 0.00 0.00 0.00 69 1009.2
20260506120546 12 352 20.9 30.6 0.00 0.00 0.00 68 1009.2
20260506120046 12 328 22.5 29.0 0.00 0.00 0.00 68 1009.1
20260506115547 12 331 20.9 29.0 0.00 0.00 0.00 67 1009.1
20260506115044 12 346 20.9 32.2 0.00 0.00 0.00 69 1009.1
20260506114544 12 323 24.1 32.2 0.00 0.00 0.00 68 1009.1
20260506114044 12 354 24.1 32.2 0.00 0.00 0.00 67 1009.0
20260506113544 12 341 19.3 29.0 0.00 0.00 0.00 68 1009.0
20260506113050 12 321 20.9 32.2 0.00 0.00 0.00 66 1009.0
20260506112544 12 356 25.7 32.2 0.00 0.00 0.00 65 1009.0
20260506112043 12 343 22.5 30.6 0.00 0.00 0.00 62 1009.0
20260506111544 13 314 19.3 29.0 0.00 0.00 0.00 58 1009.0
20260506111043 13 343 20.9 27.4 0.00 0.00 0.00 58 1009.0
20260506110543 13 345 16.1 30.6 0.00 0.00 0.00 60 1008.9
20260506110044 13 356 20.9 30.6 0.00 0.00 0.00 60 1008.9
20260506105543 12 2 17.7 25.7 0.00 0.00 0.00 60 1008.9
20260506105041 12 356 19.3 25.7 0.00 0.00 0.00 61 1008.9
20260506104543 12 359 19.3 24.1 0.00 0.00 0.00 62 1008.9
20260506104040 12 352 14.5 27.4 0.00 0.00 0.00 62 1009.0
20260506103539 12 8 19.3 27.4 0.00 0.00 0.00 60 1009.0
20260506103040 12 355 16.1 25.7 0.00 0.00 0.00 58 1009.0
20260506102539 12 10 14.5 25.7 0.00 0.00 0.00 58 1008.9
20260506102037 12 13 16.1 33.8 0.00 0.00 0.00 59 1008.9
20260506101538 12 358 27.4 33.8 0.00 0.00 0.00 56 1008.9
20260506101036 12 1 19.3 30.6 0.00 0.00 0.00 60 1008.9
20260506100535 12 23 16.1 32.2 0.00 0.00 0.00 61 1008.9
20260506100037 12 1 24.1 32.2 0.00 0.00 0.00 60 1008.9
20260506095535 12 14 25.7 32.2 0.00 0.00 0.00 59 1008.8
20260506095033 12 5 16.1 27.4 0.00 0.00 0.00 64 1008.8
20260506094533 12 10 17.7 27.4 0.00 0.00 0.00 66 1008.8
20260506094031 12 35 19.3 30.6 0.00 0.00 0.00 64 1008.9
20260506093531 12 23 24.1 30.6 0.00 0.00 0.00 63 1008.8
20260506093035 12 37 17.7 27.4 0.00 0.00 0.00 64 1008.8
20260506092531 12 31 22.5 27.4 0.00 0.00 0.00 63 1008.7
20260506092030 12 4 19.3 29.0 0.00 0.00 0.00 62 1008.7
20260506091530 12 6 16.1 29.0 0.00 0.00 0.00 63 1008.7
20260506091031 12 20 19.3 32.2 0.00 0.00 0.00 64 1008.7
20260506090528 12 360 22.5 32.2 0.00 0.00 0.00 62 1008.6
20260506090036 12 29 22.5 30.6 0.00 0.00 0.00 61 1008.6
20260506085526 12 352 20.9 30.6 0.00 0.00 0.00 65 1008.6
20260506085026 12 337 19.3 30.6 0.00 0.00 0.00 68 1008.6
20260506084527 12 330 20.9 32.2 0.00 0.00 0.00 68 1008.5
20260506084023 11 355 20.9 32.2 0.00 0.00 0.00 68 1008.5
20260506083521 11 335 20.9 29.0 0.00 0.00 0.00 75 1008.5
20260506083028 11 334 24.1 29.0 0.00 0.00 0.00 76 1008.5
20260506082519 11 309 17.7 27.4 0.00 0.00 0.00 77 1008.5
20260506082017 11 333 20.9 27.4 0.00 0.00 0.00 78 1008.4
20260506081517 11 333 19.3 27.4 0.00 0.00 0.00 78 1008.4
20260506081016 11 317 17.7 27.4 0.00 0.00 0.00 79 1008.4
20260506080516 11 321 19.3 27.4 0.00 0.00 0.00 79 1008.4
20260506073513 10 322 20.9 25.7 0.00 0.00 0.00 80 1008.4
20260506073013 10 333 19.3 24.1 0.00 0.00 0.00 80 1008.4
20260506072513 10 316 14.5 25.7 0.00 0.00 0.00 81 1008.4
20260506072012 10 351 17.7 27.4 0.00 0.00 0.00 81 1008.4
20260506071512 10 351 17.7 27.4 0.00 0.00 0.00 82 1008.4
20260506071015 10 326 17.7 24.1 0.00 0.00 0.00 81 1008.4
20260506070513 10 329 16.1 25.7 0.00 0.00 0.00 82 1008.4